AOJ12R LSZR-EGLL

Flight info

Callsign AOJ12R
Flight time 1h 15m
Altitude 47000
Route AMIKI DCT VEBIT T10 TORPA DCT REKLA DCT RLP DCT ROTSI DCT KOTUN DCT NINAL DCT ABNUR DCT DIMAL DCT ALESO
Aircraft C750/M-SBDE3FGHRWXY/S

Departure

Time 2026-04-25 07:40
Airport Sankt Gallen Altenrhein Airport (LSZR)

Arrival

Time 2026-04-25 08:56
Airport London Heathrow Airport (EGLL)
Time Latitude Longitude Altitude Speed Heading
2026-04-25 07:18 47.48722 9.55254 1310 ft 0 kts
2026-04-25 07:35 47.48727 9.55255 1310 ft 0 kts
2026-04-25 07:36 47.48736 9.55268 1310 ft 4 kts 56°
2026-04-25 07:36 47.48737 9.55323 1309 ft 5 kts 98°
2026-04-25 07:36 47.48712 9.55344 1309 ft 5 kts 172°
2026-04-25 07:37 47.48677 9.55341 1310 ft 5 kts 187°
2026-04-25 07:37 47.48635 9.55333 1312 ft 7 kts 188°
2026-04-25 07:37 47.48585 9.55336 1314 ft 7 kts 130°
2026-04-25 07:37 47.48573 9.55423 1315 ft 11 kts 98°
2026-04-25 07:38 47.48558 9.55561 1314 ft 17 kts 98°
2026-04-25 07:38 47.48537 9.55763 1316 ft 22 kts 99°
2026-04-25 07:38 47.48512 9.56008 1313 ft 26 kts 98°
2026-04-25 07:38 47.48484 9.56269 1310 ft 26 kts 98°
2026-04-25 07:39 47.48457 9.56530 1307 ft 26 kts 99°
2026-04-25 07:39 47.48428 9.56808 1308 ft 29 kts 98°
2026-04-25 07:39 47.48412 9.56986 1311 ft 11 kts 87°
2026-04-25 07:39 47.48407 9.57056 1313 ft 3 kts 173°
2026-04-25 07:40 47.48405 9.57021 1312 ft 6 kts 279°
2026-04-25 07:40 47.48443 9.56660 1307 ft 91 kts 278°
2026-04-25 07:40 47.48580 9.55367 1581 ft 138 kts 278°
2026-04-25 07:40 47.48733 9.53903 2251 ft 152 kts 279°
2026-04-25 07:41 47.48940 9.52281 2753 ft 173 kts 280°
2026-04-25 07:41 47.49172 9.50399 3234 ft 199 kts 279°
2026-04-25 07:41 47.49415 9.48236 3761 ft 227 kts 278°
2026-04-25 07:41 47.49682 9.45803 4518 ft 251 kts 279°
2026-04-25 07:42 47.49972 9.43174 5552 ft 262 kts 279°
2026-04-25 07:42 47.50265 9.40517 6798 ft 262 kts 279°
2026-04-25 07:42 47.50560 9.37821 7924 ft 268 kts 279°
2026-04-25 07:42 47.50859 9.35083 9040 ft 273 kts 279°
2026-04-25 07:43 47.51237 9.32312 10056 ft 279 kts 288°
2026-04-25 07:43 47.52274 9.29771 10475 ft 304 kts 307°
2026-04-25 07:43 47.53685 9.27261 10733 ft 331 kts 309°
2026-04-25 07:43 47.55086 9.24437 11112 ft 347 kts 297°
2026-04-25 07:44 47.55761 9.21025 12021 ft 346 kts 280°
2026-04-25 07:44 47.56112 9.17477 12825 ft 351 kts 277°
2026-04-25 07:44 47.56419 9.13862 13616 ft 357 kts 277°
2026-04-25 07:44 47.56759 9.10205 14372 ft 361 kts 278°
2026-04-25 07:45 47.57117 9.06555 15115 ft 364 kts 277°
2026-04-25 07:45 47.57167 9.05785 15232 ft 365 kts 274°
2026-04-25 07:45 47.56845 9.02042 15826 ft 369 kts 253°
2026-04-25 07:45 47.55907 8.98518 16705 ft 368 kts 246°
2026-04-25 07:46 47.54868 8.95034 17535 ft 371 kts 245°
2026-04-25 07:46 47.53823 8.91530 18402 ft 374 kts 245°
2026-04-25 07:46 47.52797 8.87975 19131 ft 378 kts 246°
2026-04-25 07:46 47.51779 8.84435 19866 ft 382 kts 245°
2026-04-25 07:47 47.50715 8.80807 20633 ft 386 kts 245°
2026-04-25 07:47 47.49633 8.77140 21362 ft 391 kts 245°
2026-04-25 07:47 47.48549 8.73438 22094 ft 395 kts 245°
2026-04-25 07:47 47.47452 8.69689 22811 ft 400 kts 245°
2026-04-25 07:48 47.46338 8.65898 23546 ft 404 kts 244°
2026-04-25 07:48 47.45210 8.62073 24181 ft 408 kts 244°
2026-04-25 07:48 47.44087 8.58268 24843 ft 410 kts 244°
2026-04-25 07:48 47.42946 8.54401 25491 ft 412 kts 244°
2026-04-25 07:49 47.41794 8.50504 26131 ft 415 kts 244°
2026-04-25 07:49 47.40631 8.46583 26770 ft 417 kts 244°
2026-04-25 07:49 47.39459 8.42638 27418 ft 420 kts 244°
2026-04-25 07:49 47.38282 8.38679 28069 ft 423 kts 245°
2026-04-25 07:50 47.37097 8.34696 28717 ft 426 kts 245°
2026-04-25 07:50 47.35901 8.30683 29346 ft 428 kts 245°
2026-04-25 07:50 47.34695 8.26650 29956 ft 432 kts 245°
2026-04-25 07:50 47.33476 8.22576 30479 ft 436 kts 245°
2026-04-25 07:51 47.32262 8.18525 30990 ft 438 kts 245°
2026-04-25 07:51 47.31027 8.14408 31608 ft 438 kts 245°
2026-04-25 07:51 47.29800 8.10326 32369 ft 435 kts 245°
2026-04-25 07:51 47.28673 8.06202 33031 ft 435 kts 250°
2026-04-25 07:52 47.27931 8.01882 33740 ft 435 kts 257°
2026-04-25 07:52 47.27580 7.97467 34446 ft 434 kts 265°
2026-04-25 07:52 47.27628 7.93027 35066 ft 435 kts 272°
2026-04-25 07:52 47.28021 7.88606 35694 ft 435 kts 276°
2026-04-25 07:53 47.28448 7.84204 36340 ft 433 kts 276°
2026-04-25 07:53 47.28851 7.79841 36961 ft 432 kts 276°
2026-04-25 07:53 47.29264 7.75440 37584 ft 431 kts 277°
2026-04-25 07:53 47.29682 7.71073 38204 ft 430 kts 277°
2026-04-25 07:54 47.30096 7.66713 38817 ft 429 kts 277°
2026-04-25 07:54 47.30594 7.62378 39262 ft 430 kts 283°
2026-04-25 07:54 47.31461 7.58206 39670 ft 431 kts 287°
2026-04-25 07:54 47.32407 7.54010 40130 ft 432 kts 287°
2026-04-25 07:55 47.33325 7.49794 40591 ft 432 kts 287°
2026-04-25 07:55 47.34225 7.45562 41047 ft 433 kts 287°
2026-04-25 07:55 47.35137 7.41335 41513 ft 433 kts 287°
2026-04-25 07:55 47.36063 7.37094 41986 ft 434 kts 288°
2026-04-25 07:56 47.36983 7.32850 42437 ft 434 kts 287°
2026-04-25 07:56 47.37893 7.28596 42883 ft 435 kts 287°
2026-04-25 07:56 47.38805 7.24336 43320 ft 435 kts 287°
2026-04-25 07:56 47.39720 7.20078 43758 ft 436 kts 288°
2026-04-25 07:57 47.40628 7.15811 44188 ft 436 kts 287°
2026-04-25 07:57 47.41335 7.11452 44559 ft 437 kts 282°
2026-04-25 07:57 47.41955 7.07066 44979 ft 436 kts 282°
2026-04-25 07:57 47.42583 7.02674 45336 ft 436 kts 282°
2026-04-25 07:58 47.43228 6.98354 45674 ft 436 kts 283°
2026-04-25 07:58 47.43882 6.93977 46007 ft 436 kts 282°
2026-04-25 07:58 47.44517 6.89594 46317 ft 436 kts 282°
2026-04-25 07:58 47.45146 6.85207 46610 ft 437 kts 282°
2026-04-25 07:59 47.45784 6.80819 46893 ft 437 kts 282°
2026-04-25 07:59 47.46422 6.76440 47143 ft 436 kts 282°
2026-04-25 07:59 47.47702 6.67533 47126 ft 449 kts 282°
2026-04-25 08:00 47.48509 6.58270 47142 ft 460 kts 276°
2026-04-25 08:00 47.49168 6.48750 47139 ft 470 kts 277°
2026-04-25 08:01 47.49877 6.39063 47136 ft 476 kts 276°
2026-04-25 08:01 47.50547 6.29314 47151 ft 477 kts 276°
2026-04-25 08:02 47.51234 6.19552 47145 ft 477 kts 276°
2026-04-25 08:02 47.51893 6.09849 47143 ft 477 kts 276°
2026-04-25 08:03 47.52557 6.00081 47137 ft 477 kts 276°
2026-04-25 08:03 47.53446 5.90358 47117 ft 477 kts 284°
2026-04-25 08:04 47.56080 5.81376 47123 ft 478 kts 302°
2026-04-25 08:04 47.60400 5.73872 47155 ft 480 kts 314°
2026-04-25 08:05 47.65034 5.66747 47137 ft 480 kts 310°
2026-04-25 08:05 47.69456 5.59336 47140 ft 479 kts 312°
2026-04-25 08:06 47.74023 5.52106 47125 ft 479 kts 311°
2026-04-25 08:06 47.78456 5.44783 47126 ft 479 kts 311°
2026-04-25 08:07 47.82969 5.37491 47141 ft 479 kts 311°
2026-04-25 08:07 47.86722 5.31322 47141 ft 479 kts 311°
2026-04-25 08:08 47.91179 5.24024 47136 ft 479 kts 311°
2026-04-25 08:08 47.95654 5.16666 47131 ft 478 kts 311°
2026-04-25 08:09 48.00123 5.09297 47134 ft 479 kts 311°
2026-04-25 08:09 48.04587 5.01920 47141 ft 478 kts 311°
2026-04-25 08:10 48.09046 4.94524 47145 ft 479 kts 311°
2026-04-25 08:10 48.13498 4.87127 47142 ft 478 kts 311°
2026-04-25 08:11 48.17945 4.79711 47147 ft 478 kts 311°
2026-04-25 08:11 48.22380 4.72298 47151 ft 478 kts 311°
2026-04-25 08:12 48.26808 4.64874 47153 ft 477 kts 311°
2026-04-25 08:12 48.31232 4.57437 47152 ft 477 kts 311°
2026-04-25 08:13 48.35612 4.50051 47159 ft 476 kts 311°
2026-04-25 08:14 48.42210 4.38888 47160 ft 475 kts 311°
2026-04-25 08:14 48.46599 4.31436 47162 ft 475 kts 311°
2026-04-25 08:15 48.50973 4.23987 47162 ft 475 kts 311°
2026-04-25 08:15 48.55343 4.16525 47173 ft 475 kts 311°
2026-04-25 08:16 48.59717 4.09034 47181 ft 475 kts 311°
2026-04-25 08:16 48.64080 4.01541 47183 ft 475 kts 310°
2026-04-25 08:17 48.68443 3.94028 47180 ft 475 kts 310°
2026-04-25 08:17 48.72827 3.86536 47171 ft 477 kts 313°
2026-04-25 08:18 48.77579 3.79502 47178 ft 477 kts 315°
2026-04-25 08:18 48.82292 3.72478 47183 ft 477 kts 314°
2026-04-25 08:19 48.87020 3.65412 47181 ft 477 kts 315°
2026-04-25 08:19 48.91718 3.58390 47179 ft 477 kts 314°
2026-04-25 08:20 48.96433 3.51300 47184 ft 476 kts 315°
2026-04-25 08:20 49.01143 3.44216 47188 ft 476 kts 314°
2026-04-25 08:21 49.05845 3.37111 47192 ft 476 kts 314°
2026-04-25 08:21 49.10553 3.29985 47196 ft 476 kts 314°
2026-04-25 08:22 49.15253 3.22846 47191 ft 477 kts 314°
2026-04-25 08:22 49.19952 3.15691 47195 ft 477 kts 314°
2026-04-25 08:23 49.24614 3.08572 47195 ft 477 kts 314°
2026-04-25 08:23 49.29299 3.01397 47192 ft 476 kts 314°
2026-04-25 08:24 49.33985 2.94200 47200 ft 477 kts 314°
2026-04-25 08:24 49.38699 2.86939 47203 ft 477 kts 314°
2026-04-25 08:25 49.43347 2.79760 47200 ft 477 kts 314°
2026-04-25 08:25 49.48024 2.72515 47197 ft 477 kts 314°
2026-04-25 08:26 49.52700 2.65252 47200 ft 477 kts 314°
2026-04-25 08:26 49.57367 2.57979 47206 ft 478 kts 314°
2026-04-25 08:27 49.62232 2.50985 47186 ft 478 kts 321°
2026-04-25 08:27 49.67569 2.44838 47195 ft 479 kts 322°
2026-04-25 08:28 49.72855 2.38570 47201 ft 479 kts 321°
2026-04-25 08:28 49.78167 2.32340 47205 ft 479 kts 322°
2026-04-25 08:29 49.83471 2.26061 47209 ft 480 kts 321°
2026-04-25 08:29 49.88727 2.19837 46595 ft 469 kts 321°
2026-04-25 08:29 49.91292 2.16797 45998 ft 459 kts 321°
2026-04-25 08:30 49.93804 2.13805 45393 ft 451 kts 321°
2026-04-25 08:30 49.96270 2.10866 44788 ft 443 kts 321°
2026-04-25 08:30 49.98695 2.07977 44191 ft 435 kts 321°
2026-04-25 08:30 50.01087 2.05123 43629 ft 432 kts 321°
2026-04-25 08:31 50.03472 2.02271 43065 ft 434 kts 321°
2026-04-25 08:31 50.05873 1.99396 42493 ft 437 kts 321°
2026-04-25 08:31 50.08256 1.96542 41924 ft 438 kts 321°
2026-04-25 08:31 50.10668 1.93648 41346 ft 438 kts 321°
2026-04-25 08:32 50.13085 1.90745 40766 ft 438 kts 321°
2026-04-25 08:32 50.15494 1.87845 40194 ft 438 kts 321°
2026-04-25 08:32 50.17849 1.84839 39600 ft 437 kts 316°
2026-04-25 08:32 50.20031 1.81539 39045 ft 436 kts 314°
2026-04-25 08:33 50.22174 1.78190 38408 ft 436 kts 314°
2026-04-25 08:33 50.24340 1.74869 37836 ft 437 kts 314°
2026-04-25 08:33 50.26535 1.71569 37268 ft 439 kts 314°
2026-04-25 08:33 50.28725 1.68246 36682 ft 439 kts 314°
2026-04-25 08:34 50.30907 1.64884 36106 ft 440 kts 314°
2026-04-25 08:34 50.33093 1.61519 35524 ft 442 kts 314°
2026-04-25 08:34 50.35299 1.58145 34937 ft 443 kts 314°
2026-04-25 08:34 50.37480 1.54810 34368 ft 444 kts 314°
2026-04-25 08:35 50.39680 1.51422 33736 ft 444 kts 313°
2026-04-25 08:35 50.41887 1.48015 33152 ft 446 kts 313°
2026-04-25 08:35 50.44101 1.44600 32561 ft 447 kts 313°
2026-04-25 08:35 50.46326 1.41170 31968 ft 449 kts 313°
2026-04-25 08:36 50.48551 1.37729 31377 ft 450 kts 313°
2026-04-25 08:36 50.50706 1.34150 30779 ft 453 kts 310°
2026-04-25 08:36 50.52833 1.30526 30168 ft 449 kts 311°
2026-04-25 08:36 50.54962 1.26975 29552 ft 444 kts 311°
2026-04-25 08:37 50.57056 1.23440 28972 ft 440 kts 310°
2026-04-25 08:37 50.59204 1.20022 28396 ft 437 kts 313°
2026-04-25 08:37 50.61338 1.16640 27817 ft 433 kts 312°
2026-04-25 08:37 50.63436 1.13258 27247 ft 430 kts 312°
2026-04-25 08:38 50.65538 1.09933 26688 ft 426 kts 313°
2026-04-25 08:38 50.67636 1.06650 26132 ft 423 kts 313°
2026-04-25 08:38 50.69676 1.03423 25586 ft 419 kts 313°
2026-04-25 08:38 50.71717 1.00162 24994 ft 415 kts 313°
2026-04-25 08:39 50.73744 0.96934 24495 ft 413 kts 313°
2026-04-25 08:39 50.75758 0.93739 23953 ft 409 kts 313°
2026-04-25 08:39 50.77757 0.90557 23374 ft 406 kts 313°
2026-04-25 08:39 50.79735 0.87398 22842 ft 403 kts 313°
2026-04-25 08:40 50.81699 0.84256 22312 ft 400 kts 313°
2026-04-25 08:40 50.83654 0.81132 21786 ft 398 kts 313°
2026-04-25 08:40 50.85591 0.78030 21261 ft 395 kts 313°
2026-04-25 08:40 50.87516 0.74941 20743 ft 393 kts 313°
2026-04-25 08:41 50.89428 0.71872 20228 ft 390 kts 313°
2026-04-25 08:41 50.91327 0.68819 19716 ft 387 kts 313°
2026-04-25 08:41 50.93213 0.65783 19203 ft 385 kts 313°
2026-04-25 08:41 50.95086 0.62765 18696 ft 383 kts 313°
2026-04-25 08:42 50.96948 0.59759 18152 ft 380 kts 313°
2026-04-25 08:42 50.98797 0.56772 17690 ft 378 kts 313°
2026-04-25 08:42 51.00635 0.53801 17220 ft 376 kts 313°
2026-04-25 08:42 51.02458 0.50848 16747 ft 374 kts 313°
2026-04-25 08:43 51.04277 0.47896 16282 ft 372 kts 313°
2026-04-25 08:43 51.06080 0.44971 15803 ft 370 kts 313°
2026-04-25 08:43 51.07934 0.42160 15330 ft 365 kts 316°
2026-04-25 08:43 51.09003 0.40564 14892 ft 354 kts 315°
2026-04-25 08:44 51.10711 0.37874 14448 ft 333 kts 314°
2026-04-25 08:44 51.12310 0.35367 13899 ft 318 kts 315°
2026-04-25 08:44 51.13903 0.32962 13136 ft 312 kts 316°
2026-04-25 08:44 51.15450 0.30632 12821 ft 296 kts 315°
2026-04-25 08:45 51.16940 0.28341 12774 ft 299 kts 315°
2026-04-25 08:45 51.18435 0.26037 12428 ft 299 kts 315°
2026-04-25 08:45 51.19921 0.23762 12031 ft 294 kts 315°
2026-04-25 08:45 51.21391 0.21510 11646 ft 292 kts 315°
2026-04-25 08:46 51.22839 0.19287 11204 ft 281 kts 315°
2026-04-25 08:46 51.24255 0.17112 10764 ft 276 kts 315°
2026-04-25 08:46 51.25582 0.15070 10252 ft 252 kts 315°
2026-04-25 08:46 51.26818 0.13166 9307 ft 246 kts 315°
2026-04-25 08:47 51.28073 0.11312 8412 ft 245 kts 322°
2026-04-25 08:47 51.29558 0.10071 8256 ft 244 kts 335°
2026-04-25 08:47 51.31123 0.09008 8021 ft 245 kts 336°
2026-04-25 08:47 51.32688 0.07952 7682 ft 244 kts 336°
2026-04-25 08:48 51.34246 0.06899 7307 ft 243 kts 336°
2026-04-25 08:48 51.35794 0.05851 7238 ft 243 kts 336°
2026-04-25 08:48 51.37346 0.04798 7236 ft 242 kts 336°
2026-04-25 08:48 51.38902 0.03739 7015 ft 241 kts 336°
2026-04-25 08:49 51.40435 0.02693 6330 ft 236 kts 336°
2026-04-25 08:49 51.41863 0.01706 5612 ft 215 kts 336°
2026-04-25 08:49 51.43208 0.00760 4898 ft 213 kts 336°
2026-04-25 08:49 51.44556 -0.00205 4166 ft 210 kts 336°
2026-04-25 08:50 51.45707 -0.01606 3276 ft 214 kts 307°
2026-04-25 08:50 51.46387 -0.03718 2991 ft 206 kts 295°
2026-04-25 08:50 51.46999 -0.05820 3007 ft 209 kts 296°
2026-04-25 08:50 51.47624 -0.07929 3008 ft 209 kts 296°
2026-04-25 08:51 51.47916 -0.10187 2971 ft 208 kts 269°
2026-04-25 08:51 51.47858 -0.12533 3012 ft 211 kts 269°
2026-04-25 08:51 51.47848 -0.14888 3011 ft 210 kts 270°
2026-04-25 08:51 51.47840 -0.17237 3008 ft 211 kts 270°
2026-04-25 08:52 51.47833 -0.19578 2999 ft 204 kts 270°
2026-04-25 08:52 51.47826 -0.21771 2788 ft 194 kts 270°
2026-04-25 08:52 51.47821 -0.23919 2528 ft 191 kts 270°
2026-04-25 08:52 51.47817 -0.26001 2260 ft 183 kts 270°
2026-04-25 08:53 51.47810 -0.28076 2018 ft 186 kts 270°
2026-04-25 08:53 51.47804 -0.30127 1769 ft 186 kts 270°
2026-04-25 08:53 51.47798 -0.32108 1522 ft 166 kts 270°
2026-04-25 08:53 51.47793 -0.33933 1299 ft 163 kts 270°
2026-04-25 08:54 51.47787 -0.35759 1076 ft 157 kts 270°
2026-04-25 08:54 51.47782 -0.37361 849 ft 132 kts 269°
2026-04-25 08:54 51.47778 -0.38742 677 ft 122 kts 269°
2026-04-25 08:54 51.47773 -0.40087 515 ft 120 kts 269°
2026-04-25 08:55 51.47770 -0.41412 365 ft 118 kts 269°
2026-04-25 08:55 51.47766 -0.42725 214 ft 118 kts 269°
2026-04-25 08:55 51.47765 -0.44023 83 ft 110 kts 270°
2026-04-25 08:55 51.47763 -0.45015 86 ft 75 kts 270°
2026-04-25 08:56 51.47762 -0.45516 82 ft 49 kts 270°
2026-04-25 08:56 51.47695 -0.45907 85 ft 21 kts 224°
2026-04-25 08:56 51.47615 -0.46017 83 ft 3 kts 202°
2026-04-25 08:56 51.47601 -0.46004 85 ft 3 kts 129°
2026-04-25 08:57 51.47593 -0.45956 87 ft 7 kts 100°
2026-04-25 08:57 51.47592 -0.45897 83 ft 9 kts 89°
2026-04-25 08:57 51.47595 -0.45769 83 ft 14 kts 88°
2026-04-25 08:57 51.47595 -0.45591 83 ft 18 kts 89°
2026-04-25 08:58 51.47598 -0.45375 83 ft 18 kts 90°
2026-04-25 08:58 51.47597 -0.45213 83 ft 14 kts 89°
2026-04-25 08:58 51.47598 -0.45026 84 ft 19 kts 89°
2026-04-25 08:58 51.47599 -0.44800 84 ft 21 kts 90°
2026-04-25 08:59 51.47599 -0.44539 83 ft 23 kts 89°
2026-04-25 08:59 51.47599 -0.44345 83 ft 18 kts 89°
2026-04-25 08:59 51.47592 -0.44141 83 ft 14 kts 91°
2026-04-25 08:59 51.47513 -0.44063 83 ft 17 kts 181°
2026-04-25 09:00 51.47378 -0.44062 85 ft 22 kts 179°
2026-04-25 09:00 51.47211 -0.44060 83 ft 26 kts 180°
2026-04-25 09:00 51.47065 -0.44059 85 ft 20 kts 179°
2026-04-25 09:00 51.46940 -0.44058 83 ft 11 kts 180°
2026-04-25 09:01 51.46867 -0.44058 83 ft 7 kts 180°
2026-04-25 09:01 51.46848 -0.44058 83 ft 0 kts 179°
2026-04-25 09:02 51.46831 -0.44058 83 ft 6 kts 179°
2026-04-25 09:03 51.46776 -0.44058 83 ft 10 kts 180°
2026-04-25 09:03 51.46697 -0.44056 83 ft 12 kts 179°
2026-04-25 09:03 51.46613 -0.44055 83 ft 14 kts 179°
2026-04-25 09:03 51.46491 -0.44057 82 ft 20 kts 183°
2026-04-25 09:04 51.46379 -0.44140 86 ft 9 kts 210°
2026-04-25 09:04 51.46345 -0.44172 84 ft 7 kts 212°
2026-04-25 09:04 51.46326 -0.44288 84 ft 17 kts 269°
2026-04-25 09:04 51.46326 -0.44535 84 ft 27 kts 269°
2026-04-25 09:05 51.46318 -0.44829 82 ft 30 kts 270°
2026-04-25 09:05 51.46317 -0.45053 86 ft 18 kts 269°
2026-04-25 09:05 51.46316 -0.45302 83 ft 27 kts 269°
2026-04-25 09:05 51.46314 -0.45515 87 ft 6 kts 267°
2026-04-25 09:06 51.46298 -0.45567 88 ft 3 kts 236°
2026-04-25 09:06 51.46287 -0.45592 87 ft 2 kts 235°
2026-04-25 09:06 51.46271 -0.45631 88 ft 7 kts 236°
2026-04-25 09:06 51.46254 -0.45671 86 ft 2 kts 236°
2026-04-25 09:07 51.46250 -0.45680 86 ft 0 kts 236°